Time,TemperatureF,DewpointF,PressureIn,WindDirection,WindDirectionDegrees,WindSpeedMPH,WindSpeedGustMPH,Humidity,HourlyPrecipIn,Conditions,Clouds,dailyrainin,SoftwareType,DateUTC
2014-11-28 00:04:00,56.2,47.7,30.16,NNW,327,9.2,9.2,73,0.00,CLR,,0.00,WeatherDisplay:10.37,2014-11-28 05:04:00,
2014-11-28 00:09:00,56.2,47.3,30.16,NNW,344,11.5,11.5,72,0.00,CLR,,0.00,WeatherDisplay:10.37,2014-11-28 05:09:00,
2014-11-28 00:14:00,56.1,47.2,30.16,NNW,333,11.5,11.5,72,0.00,CLR,,0.00,WeatherDisplay:10.37,2014-11-28 05:14:00,
2014-11-28 00:19:00,56.1,46.8,30.16,NW,325,13.8,13.8,71,0.00,CLR,,0.00,WeatherDisplay:10.37,2014-11-28 05:19:00,
2014-11-28 00:24:00,56.0,46.7,30.16,NW,325,11.5,11.5,71,0.00,CLR,,0.00,WeatherDisplay:10.37,2014-11-28 05:24:00,
2014-11-28 00:29:00,56.0,46.7,30.16,WNW,298,5.8,5.8,71,0.00,CLR,,0.00,WeatherDisplay:10.37,2014-11-28 05:29:00,
2014-11-28 00:34:00,55.9,46.3,30.15,NW,315,10.4,10.4,70,0.00,CLR,,0.00,WeatherDisplay:10.37,2014-11-28 05:34:00,
2014-11-28 00:39:00,55.8,46.2,30.15,North,360,11.5,11.5,70,0.00,CLR,,0.00,WeatherDisplay:10.37,2014-11-28 05:39:00,
2014-11-28 00:44:00,55.7,46.1,30.15,NNW,337,11.5,11.5,70,0.00,CLR,,0.00,WeatherDisplay:10.37,2014-11-28 05:44:00,
2014-11-28 00:49:00,55.6,45.6,30.15,NNW,332,13.0,13.0,69,0.00,CLR,,0.00,WeatherDisplay:10.37,2014-11-28 05:49:00,
2014-11-28 00:54:00,55.5,45.5,30.16,NNW,343,11.5,11.5,69,0.00,CLR,,0.00,WeatherDisplay:10.37,2014-11-28 05:54:00,
2014-11-28 00:59:00,55.4,45.4,30.15,NNW,329,15.0,15.0,69,0.00,CLR,,0.00,WeatherDisplay:10.37,2014-11-28 05:59:00,
2014-11-28 01:04:00,55.3,45.3,30.15,NNW,345,11.5,11.5,69,0.00,CLR,,0.00,WeatherDisplay:10.37,2014-11-28 06:04:00,
2014-11-28 01:09:00,55.2,45.2,30.15,NW,324,5.8,5.8,69,0.00,CLR,,0.00,WeatherDisplay:10.37,2014-11-28 06:09:00,
2014-11-28 01:14:00,55.1,45.1,30.15,NW,310,11.5,11.5,69,0.00,CLR,,0.00,WeatherDisplay:10.37,2014-11-28 06:14:00,
2014-11-28 01:19:00,54.9,44.9,30.15,NNW,344,11.5,11.5,69,0.00,CLR,,0.00,WeatherDisplay:10.37,2014-11-28 06:19:00,
2014-11-28 01:24:00,54.8,44.8,30.15,NNW,331,11.5,11.5,69,0.00,CLR,,0.00,WeatherDisplay:10.37,2014-11-28 06:24:00,
2014-11-28 01:29:00,54.7,44.7,30.15,NNW,339,12.7,12.7,69,0.00,CLR,,0.00,WeatherDisplay:10.37,2014-11-28 06:29:00,
2014-11-28 01:34:00,54.6,44.6,30.15,NNW,333,14.0,14.0,69,0.00,CLR,,0.00,WeatherDisplay:10.37,2014-11-28 06:34:00,
2014-11-28 01:39:00,54.6,44.6,30.15,NNW,348,9.2,9.2,69,0.00,CLR,,0.00,WeatherDisplay:10.37,2014-11-28 06:39:00,
2014-11-28 01:44:00,54.5,44.5,30.15,NW,322,11.5,11.5,69,0.00,CLR,,0.00,WeatherDisplay:10.37,2014-11-28 06:44:00,
2014-11-28 01:49:00,54.4,44.4,30.15,NW,319,11.5,11.5,69,0.00,CLR,,0.00,WeatherDisplay:10.37,2014-11-28 06:49:00,
2014-11-28 01:54:00,54.4,44.4,30.15,NNW,338,12.7,12.7,69,0.00,CLR,,0.00,WeatherDisplay:10.37,2014-11-28 06:54:00,
2014-11-28 01:59:00,54.3,44.7,30.15,NNW,327,12.7,12.7,70,0.00,CLR,,0.00,WeatherDisplay:10.37,2014-11-28 06:59:00,
2014-11-28 02:04:00,54.3,44.7,30.15,NNW,334,16.1,16.1,70,0.00,CLR,,0.00,WeatherDisplay:10.37,2014-11-28 07:04:00,
2014-11-28 02:09:00,54.2,44.6,30.15,NW,322,13.8,13.8,70,0.00,CLR,,0.00,WeatherDisplay:10.37,2014-11-28 07:09:00,
2014-11-28 02:14:00,54.1,44.5,30.15,NW,325,10.4,10.4,70,0.00,CLR,,0.00,WeatherDisplay:10.37,2014-11-28 07:14:00,
2014-11-28 02:19:00,54.0,44.4,30.15,NNW,331,17.3,17.3,70,0.00,CLR,,0.00,WeatherDisplay:10.37,2014-11-28 07:19:00,
2014-11-28 02:24:00,54.0,44.8,30.15,North,355,12.7,12.7,71,0.00,CLR,,0.00,WeatherDisplay:10.37,2014-11-28 07:24:00,
2014-11-28 02:29:00,53.9,44.7,30.15,NW,325,13.8,13.8,71,0.00,CLR,,0.00,WeatherDisplay:10.37,2014-11-28 07:29:00,
2014-11-28 02:34:00,53.8,45.0,30.14,North,355,11.5,11.5,72,0.00,CLR,,0.00,WeatherDisplay:10.37,2014-11-28 07:34:00,
2014-11-28 02:39:00,53.7,44.9,30.14,NNW,327,12.7,12.7,72,0.00,CLR,,0.00,WeatherDisplay:10.37,2014-11-28 07:39:00,
2014-11-28 02:44:00,53.6,44.8,30.14,North,360,11.5,11.5,72,0.00,CLR,,0.00,WeatherDisplay:10.37,2014-11-28 07:44:00,
2014-11-28 02:49:00,53.5,45.1,30.14,NNW,348,15.0,15.0,73,0.00,CLR,,0.00,WeatherDisplay:10.37,2014-11-28 07:49:00,
2014-11-28 02:54:00,53.5,45.1,30.14,North,360,15.0,15.0,73,0.00,CLR,,0.00,WeatherDisplay:10.37,2014-11-28 07:54:00,
2014-11-28 02:59:00,53.4,44.6,30.14,NNW,341,16.1,16.1,72,0.00,CLR,,0.00,WeatherDisplay:10.37,2014-11-28 07:59:00,
2014-11-28 03:04:00,53.3,44.9,30.14,NNW,344,10.4,10.4,73,0.00,CLR,,0.00,WeatherDisplay:10.37,2014-11-28 08:04:00,
2014-11-28 03:09:00,53.3,44.9,30.14,North,5,12.7,12.7,73,0.00,CLR,,0.00,WeatherDisplay:10.37,2014-11-28 08:09:00,
2014-11-28 03:14:00,53.2,44.8,30.14,NW,312,14.0,14.0,73,0.00,CLR,,0.00,WeatherDisplay:10.37,2014-11-28 08:14:00,
2014-11-28 03:19:00,53.1,44.7,30.14,NNW,340,11.5,11.5,73,0.00,CLR,,0.00,WeatherDisplay:10.37,2014-11-28 08:19:00,
2014-11-28 03:24:00,53.0,44.6,30.14,NW,320,11.5,11.5,73,0.00,CLR,,0.00,WeatherDisplay:10.37,2014-11-28 08:24:00,
2014-11-28 03:29:00,52.9,44.5,30.14,NW,313,11.5,11.5,73,0.00,CLR,,0.00,WeatherDisplay:10.37,2014-11-28 08:29:00,
2014-11-28 03:34:00,52.8,44.4,30.14,NNW,338,11.5,11.5,73,0.00,CLR,,0.00,WeatherDisplay:10.37,2014-11-28 08:34:00,
2014-11-28 03:39:00,52.8,44.4,30.14,North,360,12.7,12.7,73,0.00,CLR,,0.00,WeatherDisplay:10.37,2014-11-28 08:39:00,
2014-11-28 03:44:00,52.7,44.3,30.14,NNW,338,15.0,15.0,73,0.00,CLR,,0.00,WeatherDisplay:10.37,2014-11-28 08:44:00,
2014-11-28 03:49:00,52.6,44.5,30.14,NNW,346,12.7,12.7,74,0.00,CLR,,0.00,WeatherDisplay:10.37,2014-11-28 08:49:00,
2014-11-28 03:54:00,52.4,44.4,30.15,NNW,346,14.0,14.0,74,0.00,CLR,,0.00,WeatherDisplay:10.37,2014-11-28 08:54:00,
2014-11-28 03:59:00,52.4,44.4,30.14,NNW,348,15.0,15.0,74,0.00,CLR,,0.00,WeatherDisplay:10.37,2014-11-28 08:59:00,
2014-11-28 04:04:00,52.3,44.3,30.14,North,355,11.5,11.5,74,0.00,CLR,,0.00,WeatherDisplay:10.37,2014-11-28 09:04:00,
2014-11-28 04:09:00,52.1,44.1,30.14,North,355,13.8,13.8,74,0.00,CLR,,0.00,WeatherDisplay:10.37,2014-11-28 09:09:00,
2014-11-28 04:14:00,52.0,44.0,30.14,WNW,301,13.8,13.8,74,0.00,CLR,,0.00,WeatherDisplay:10.37,2014-11-28 09:14:00,
2014-11-28 04:19:00,51.9,44.2,30.14,NNW,337,12.7,12.7,75,0.00,CLR,,0.00,WeatherDisplay:10.37,2014-11-28 09:19:00,
2014-11-28 04:24:00,51.8,44.1,30.14,NNW,339,15.0,15.0,75,0.00,CLR,,0.00,WeatherDisplay:10.37,2014-11-28 09:24:00,
2014-11-28 04:29:00,51.7,44.0,30.14,NW,312,11.5,11.5,75,0.00,CLR,,0.00,WeatherDisplay:10.37,2014-11-28 09:29:00,
2014-11-28 04:34:00,51.6,43.9,30.14,North,9,10.4,10.4,75,0.00,CLR,,0.00,WeatherDisplay:10.37,2014-11-28 09:34:00,
2014-11-28 04:39:00,51.5,44.2,30.14,NNW,338,10.4,10.4,76,0.00,CLR,,0.00,WeatherDisplay:10.37,2014-11-28 09:39:00,
2014-11-28 04:44:00,51.5,43.8,30.15,NNW,333,13.8,13.8,75,0.00,CLR,,0.00,WeatherDisplay:10.37,2014-11-28 09:44:00,
2014-11-28 04:49:00,51.4,44.1,30.15,NNW,329,6.9,7.2,76,0.00,CLR,,0.00,WeatherDisplay:10.37,2014-11-28 09:49:00,
2014-11-28 04:54:00,51.3,44.0,30.14,NNW,342,5.8,5.8,76,0.00,CLR,,0.00,WeatherDisplay:10.37,2014-11-28 09:54:00,
2014-11-28 04:59:00,51.2,43.9,30.15,NNW,338,12.7,12.7,76,0.00,CLR,,0.00,WeatherDisplay:10.37,2014-11-28 09:59:00,
2014-11-28 05:04:00,51.2,43.9,30.15,NNW,346,11.5,11.5,76,0.00,CLR,,0.00,WeatherDisplay:10.37,2014-11-28 10:04:00,
2014-11-28 05:09:00,51.0,43.7,30.14,WNW,302,10.4,10.4,76,0.00,CLR,,0.00,WeatherDisplay:10.37,2014-11-28 10:09:00,
2014-11-28 05:14:00,51.0,44.0,30.15,NNW,346,11.5,11.5,77,0.00,CLR,,0.00,WeatherDisplay:10.37,2014-11-28 10:14:00,
2014-11-28 05:19:00,50.9,43.9,30.15,North,349,11.5,11.5,77,0.00,CLR,,0.00,WeatherDisplay:10.37,2014-11-28 10:19:00,
2014-11-28 05:24:00,50.8,43.8,30.15,North,355,9.2,9.2,77,0.00,CLR,,0.00,WeatherDisplay:10.37,2014-11-28 10:24:00,
2014-11-28 05:29:00,50.7,43.8,30.15,North,360,16.1,16.1,77,0.00,CLR,,0.00,WeatherDisplay:10.37,2014-11-28 10:29:00,
2014-11-28 05:34:00,50.6,44.0,30.15,NNW,331,8.1,8.1,78,0.00,CLR,,0.00,WeatherDisplay:10.37,2014-11-28 10:34:00,
2014-11-28 05:40:00,50.4,43.8,30.16,NW,319,9.2,9.2,78,0.00,CLR,,0.00,WeatherDisplay:10.37,2014-11-28 10:40:00,
2014-11-28 05:45:00,50.1,43.5,30.16,NW,314,9.2,9.2,78,0.00,CLR,,0.00,WeatherDisplay:10.37,2014-11-28 10:45:00,
2014-11-28 05:50:00,49.8,43.5,30.16,NW,306,11.5,11.5,79,0.00,CLR,,0.00,WeatherDisplay:10.37,2014-11-28 10:50:00,
2014-11-28 05:55:00,49.7,43.4,30.16,NW,323,5.0,13.0,79,0.00,CLR,,0.00,WeatherDisplay:10.37,2014-11-28 10:55:00,
2014-11-28 06:00:00,49.5,43.6,30.16,NNW,337,4.6,4.6,80,0.00,CLR,,0.00,WeatherDisplay:10.37,2014-11-28 11:00:00,
2014-11-28 06:05:00,49.4,43.5,30.16,NNW,327,11.5,11.5,80,0.00,CLR,,0.00,WeatherDisplay:10.37,2014-11-28 11:05:00,
2014-11-28 06:10:00,49.3,43.4,30.17,NW,325,5.0,12.0,80,0.00,CLR,,0.00,WeatherDisplay:10.37,2014-11-28 11:10:00,
2014-11-28 06:15:00,49.2,43.6,30.17,NW,312,9.2,9.2,81,0.00,CLR,,0.00,WeatherDisplay:10.37,2014-11-28 11:15:00,
2014-11-28 06:20:00,49.2,43.6,30.17,NW,322,6.0,12.0,81,0.00,CLR,,0.00,WeatherDisplay:10.37,2014-11-28 11:20:00,
2014-11-28 06:25:00,49.1,43.5,30.17,NW,326,7.0,12.0,81,0.00,CLR,,0.00,WeatherDisplay:10.37,2014-11-28 11:25:00,
2014-11-28 06:30:00,49.1,43.5,30.16,West,279,11.5,11.5,81,0.00,CLR,,0.00,WeatherDisplay:10.37,2014-11-28 11:30:00,
2014-11-28 06:35:00,49.0,43.4,30.17,NW,322,6.0,6.0,81,0.00,CLR,,0.00,WeatherDisplay:10.37,2014-11-28 11:35:00,
2014-11-28 06:40:00,49.0,43.7,30.17,NW,325,11.0,11.0,82,0.00,CLR,,0.00,WeatherDisplay:10.37,2014-11-28 11:40:00,
2014-11-28 06:45:00,48.9,43.6,30.17,NNW,336,11.5,11.5,82,0.00,CLR,,0.00,WeatherDisplay:10.37,2014-11-28 11:45:00,
2014-11-28 06:50:00,48.9,43.6,30.17,NNW,334,6.0,12.0,82,0.00,CLR,,0.00,WeatherDisplay:10.37,2014-11-28 11:50:00,
2014-11-28 06:55:00,48.9,43.6,30.17,NNW,334,11.5,11.5,82,0.00,CLR,,0.00,WeatherDisplay:10.37,2014-11-28 11:55:00,
2014-11-28 07:00:00,48.9,44.0,30.17,NW,325,5.0,13.0,83,0.00,CLR,,0.00,WeatherDisplay:10.37,2014-11-28 12:00:00,
2014-11-28 07:05:00,49.0,44.1,30.18,NW,326,7.0,14.0,83,0.00,CLR,,0.00,WeatherDisplay:10.37,2014-11-28 12:05:00,
2014-11-28 07:10:00,49.2,43.9,30.18,NNW,329,10.4,10.4,82,0.00,CLR,,0.00,WeatherDisplay:10.37,2014-11-28 12:10:00,
2014-11-28 07:15:00,49.4,44.1,30.18,NW,323,13.8,13.8,82,0.00,CLR,,0.00,WeatherDisplay:10.37,2014-11-28 12:15:00,
2014-11-28 07:20:00,49.6,44.3,30.18,WNW,290,5.8,6.9,82,0.00,CLR,,0.00,WeatherDisplay:10.37,2014-11-28 12:20:00,
2014-11-28 07:25:00,49.9,44.3,30.18,NNW,340,11.5,11.5,81,0.00,CLR,,0.00,WeatherDisplay:10.37,2014-11-28 12:25:00,
2014-11-28 07:30:00,50.1,44.5,30.19,WNW,303,13.0,13.0,81,0.00,CLR,,0.00,WeatherDisplay:10.37,2014-11-28 12:30:00,
2014-11-28 07:35:00,50.3,44.4,30.19,NNW,329,6.0,13.0,80,0.00,CLR,,0.00,WeatherDisplay:10.37,2014-11-28 12:35:00,
2014-11-28 07:40:00,50.6,44.7,30.19,NW,305,13.8,13.8,80,0.00,CLR,,0.00,WeatherDisplay:10.37,2014-11-28 12:40:00,
2014-11-28 07:45:00,50.9,44.9,30.19,NW,325,6.9,6.9,80,0.00,CLR,,0.00,WeatherDisplay:10.37,2014-11-28 12:45:00,
2014-11-28 07:50:00,51.2,44.9,30.19,NW,324,11.5,11.5,79,0.00,CLR,,0.00,WeatherDisplay:10.37,2014-11-28 12:50:00,
2014-11-28 07:55:00,51.5,45.2,30.19,NW,309,10.4,10.4,79,0.00,CLR,,0.00,WeatherDisplay:10.37,2014-11-28 12:55:00,
2014-11-28 08:00:00,51.9,45.2,30.19,NNW,330,8.0,13.0,78,0.00,CLR,,0.00,WeatherDisplay:10.37,2014-11-28 13:00:00,
2014-11-28 08:05:00,52.2,45.5,30.19,North,355,6.9,6.9,78,0.00,CLR,,0.00,WeatherDisplay:10.37,2014-11-28 13:05:00,
2014-11-28 08:10:00,52.5,45.8,30.19,NW,309,10.4,10.4,78,0.00,CLR,,0.00,WeatherDisplay:10.37,2014-11-28 13:10:00,
2014-11-28 08:15:00,52.9,45.9,30.19,NNW,331,8.0,15.0,77,0.00,CLR,,0.00,WeatherDisplay:10.37,2014-11-28 13:15:00,
2014-11-28 08:20:00,53.3,46.3,30.20,NW,305,11.5,11.5,77,0.00,CLR,,0.00,WeatherDisplay:10.37,2014-11-28 13:20:00,
2014-11-28 08:25:00,53.6,46.5,30.20,NNW,331,7.0,13.0,77,0.00,CLR,,0.00,WeatherDisplay:10.37,2014-11-28 13:25:00,
2014-11-28 08:30:00,54.1,46.7,30.20,NNW,333,5.0,13.0,76,0.00,CLR,,0.00,WeatherDisplay:10.37,2014-11-28 13:30:00,
2014-11-28 08:35:00,54.6,46.8,30.20,NNW,330,11.5,11.5,75,0.00,CLR,,0.00,WeatherDisplay:10.37,2014-11-28 13:35:00,
2014-11-28 08:40:00,55.1,47.3,30.20,NNW,345,12.7,12.7,75,0.00,CLR,,0.00,WeatherDisplay:10.37,2014-11-28 13:40:00,
2014-11-28 08:45:00,55.5,47.7,30.20,NNW,330,5.0,12.0,75,0.00,CLR,,0.00,WeatherDisplay:10.37,2014-11-28 13:45:00,
2014-11-28 08:50:00,56.0,47.8,30.20,NNW,338,6.9,6.9,74,0.00,CLR,,0.00,WeatherDisplay:10.37,2014-11-28 13:50:00,
2014-11-28 08:55:00,56.5,48.3,30.21,NNW,333,7.0,14.0,74,0.00,CLR,,0.00,WeatherDisplay:10.37,2014-11-28 13:55:00,
2014-11-28 09:00:00,56.9,48.3,30.21,NNW,333,13.8,13.8,73,0.00,CLR,,0.00,WeatherDisplay:10.37,2014-11-28 14:00:00,
2014-11-28 09:04:00,57.4,48.8,30.21,North,355,9.2,9.2,73,0.00,CLR,,0.00,WeatherDisplay:10.37,2014-11-28 14:04:00,
2014-11-28 09:10:00,57.8,48.8,30.21,NW,320,12.7,12.7,72,0.00,CLR,,0.00,WeatherDisplay:10.37,2014-11-28 14:10:00,
2014-11-28 09:15:00,58.1,49.1,30.21,North,9,15.0,15.0,72,0.00,CLR,,0.00,WeatherDisplay:10.37,2014-11-28 14:15:00,
2014-11-28 09:20:00,58.5,49.5,30.21,NW,318,13.8,13.8,72,0.00,CLR,,0.00,WeatherDisplay:10.37,2014-11-28 14:20:00,
2014-11-28 09:25:00,59.0,49.6,30.21,NNW,336,7.0,13.0,71,0.00,CLR,,0.00,WeatherDisplay:10.37,2014-11-28 14:25:00,
2014-11-28 09:30:00,59.4,49.6,30.21,NNW,342,15.0,15.0,70,0.00,CLR,,0.00,WeatherDisplay:10.37,2014-11-28 14:30:00,
2014-11-28 09:35:00,59.8,50.0,30.21,NNW,332,8.0,14.0,70,0.00,CLR,,0.00,WeatherDisplay:10.37,2014-11-28 14:35:00,
2014-11-28 09:40:00,60.0,49.8,30.22,NNW,331,11.5,11.5,69,0.00,CLR,,0.00,WeatherDisplay:10.37,2014-11-28 14:40:00,
2014-11-28 09:45:00,60.2,50.0,30.22,NNE,14,9.2,9.2,69,0.00,CLR,,0.00,WeatherDisplay:10.37,2014-11-28 14:45:00,
2014-11-28 09:50:00,60.6,50.7,30.21,NNW,343,10.0,15.0,70,0.00,CLR,,0.00,WeatherDisplay:10.37,2014-11-28 14:50:00,
2014-11-28 09:55:00,60.6,50.0,30.22,NNW,336,10.0,16.0,68,0.00,CLR,,0.00,WeatherDisplay:10.37,2014-11-28 14:55:00,
2014-11-28 10:00:00,60.9,50.7,30.22,NNW,334,12.0,12.0,69,0.00,CLR,,0.00,WeatherDisplay:10.37,2014-11-28 15:00:00,
2014-11-28 10:05:00,61.2,51.0,30.22,NNW,343,8.0,15.0,69,0.00,CLR,,0.00,WeatherDisplay:10.37,2014-11-28 15:05:00,
2014-11-28 10:10:00,61.7,51.4,30.22,NNW,339,6.0,16.0,69,0.00,CLR,,0.00,WeatherDisplay:10.37,2014-11-28 15:10:00,
2014-11-28 10:15:00,62.2,51.1,30.21,North,350,16.0,16.0,67,0.00,CLR,,0.00,WeatherDisplay:10.37,2014-11-28 15:15:00,
2014-11-28 10:20:00,62.3,51.6,30.22,NW,325,8.1,8.1,68,0.00,CLR,,0.00,WeatherDisplay:10.37,2014-11-28 15:20:00,
2014-11-28 10:25:00,62.6,51.5,30.21,NNW,328,12.0,20.0,67,0.00,CLR,,0.00,WeatherDisplay:10.37,2014-11-28 15:25:00,
2014-11-28 10:30:00,62.7,51.6,30.21,North,360,16.1,16.1,67,0.00,CLR,,0.00,WeatherDisplay:10.37,2014-11-28 15:30:00,
2014-11-28 10:35:00,63.0,51.8,30.21,NNW,339,7.0,16.0,67,0.00,CLR,,0.00,WeatherDisplay:10.37,2014-11-28 15:35:00,
2014-11-28 10:40:00,63.3,52.2,30.21,NNW,347,12.7,12.7,67,0.00,CLR,,0.00,WeatherDisplay:10.37,2014-11-28 15:40:00,
2014-11-28 10:45:00,63.7,52.6,30.21,NNW,334,7.0,14.0,67,0.00,CLR,,0.00,WeatherDisplay:10.37,2014-11-28 15:45:00,
2014-11-28 10:50:00,64.0,52.4,30.21,NNW,335,13.8,13.8,66,0.00,CLR,,0.00,WeatherDisplay:10.37,2014-11-28 15:50:00,
2014-11-28 10:55:00,64.1,52.1,30.20,WNW,298,16.1,16.1,65,0.00,CLR,,0.00,WeatherDisplay:10.37,2014-11-28 15:55:00,
2014-11-28 11:00:00,64.3,52.3,30.20,NNW,341,9.0,15.0,65,0.00,CLR,,0.00,WeatherDisplay:10.37,2014-11-28 16:00:00,
2014-11-28 11:05:00,64.4,52.4,30.20,NNW,341,9.0,16.0,65,0.00,CLR,,0.00,WeatherDisplay:10.37,2014-11-28 16:05:00,
2014-11-28 11:10:00,64.6,52.6,30.20,North,355,17.3,17.3,65,0.00,CLR,,0.00,WeatherDisplay:10.37,2014-11-28 16:10:00,
2014-11-28 11:15:00,64.7,52.7,30.20,North,3,9.0,18.0,65,0.00,CLR,,0.00,WeatherDisplay:10.37,2014-11-28 16:15:00,
2014-11-28 11:20:00,64.9,52.4,30.20,NNE,22,15.0,15.0,64,0.00,CLR,,0.00,WeatherDisplay:10.37,2014-11-28 16:20:00,
2014-11-28 11:25:00,65.2,53.6,30.20,NNW,340,12.0,12.0,66,0.00,CLR,,0.00,WeatherDisplay:10.37,2014-11-28 16:25:00,
2014-11-28 11:30:00,65.4,52.9,30.19,NNW,344,18.4,18.4,64,0.00,CLR,,0.00,WeatherDisplay:10.37,2014-11-28 16:30:00,
2014-11-28 11:35:00,65.5,53.4,30.19,North,5,12.0,12.0,65,0.00,CLR,,0.00,WeatherDisplay:10.37,2014-11-28 16:35:00,
2014-11-28 11:40:00,65.8,53.3,30.19,West,271,11.5,11.5,64,0.00,CLR,,0.00,WeatherDisplay:10.37,2014-11-28 16:40:00,
2014-11-28 11:45:00,65.9,53.8,30.19,NNW,346,8.0,15.0,65,0.00,CLR,,0.00,WeatherDisplay:10.37,2014-11-28 16:45:00,
2014-11-28 11:50:00,66.2,54.1,30.19,NNE,18,11.0,11.0,65,0.00,CLR,,0.00,WeatherDisplay:10.37,2014-11-28 16:50:00,
2014-11-28 11:55:00,66.6,54.5,30.18,North,0,9.0,17.0,65,0.00,CLR,,0.00,WeatherDisplay:10.37,2014-11-28 16:55:00,
2014-11-28 12:00:00,66.7,54.1,30.18,North,5,12.0,18.0,64,0.00,CLR,,0.00,WeatherDisplay:10.37,2014-11-28 17:00:00,
2014-11-28 12:05:00,66.6,54.0,30.18,North,5,18.4,18.4,64,0.00,CLR,,0.00,WeatherDisplay:10.37,2014-11-28 17:05:00,
2014-11-28 12:10:00,66.7,54.6,30.17,NE,46,11.5,11.5,65,0.00,CLR,,0.00,WeatherDisplay:10.37,2014-11-28 17:10:00,
2014-11-28 12:15:00,66.8,53.8,30.17,North,359,12.0,17.0,63,0.00,CLR,,0.00,WeatherDisplay:10.37,2014-11-28 17:15:00,
2014-11-28 12:20:00,66.9,54.3,30.17,NNE,30,13.8,13.8,64,0.00,CLR,,0.00,WeatherDisplay:10.37,2014-11-28 17:20:00,
2014-11-28 12:25:00,67.0,54.4,30.17,North,9,10.0,18.0,64,0.00,CLR,,0.00,WeatherDisplay:10.37,2014-11-28 17:25:00,
2014-11-28 12:30:00,66.8,53.8,30.17,NNW,336,15.0,15.0,63,0.00,CLR,,0.00,WeatherDisplay:10.37,2014-11-28 17:30:00,
2014-11-28 12:35:00,66.7,54.6,30.17,North,358,7.0,17.0,65,0.00,CLR,,0.00,WeatherDisplay:10.37,2014-11-28 17:35:00,
2014-11-28 12:40:00,66.9,54.7,30.16,North,8,9.0,16.0,65,0.00,CLR,,0.00,WeatherDisplay:10.37,2014-11-28 17:40:00,
2014-11-28 12:45:00,67.0,54.8,30.16,North,350,8.0,16.0,65,0.00,CLR,,0.00,WeatherDisplay:10.37,2014-11-28 17:45:00,
2014-11-28 12:50:00,66.9,54.3,30.16,NE,36,11.5,11.5,64,0.00,CLR,,0.00,WeatherDisplay:10.37,2014-11-28 17:50:00,
2014-11-28 12:55:00,66.9,54.3,30.16,NNE,14,8.0,17.0,64,0.00,CLR,,0.00,WeatherDisplay:10.37,2014-11-28 17:55:00,
2014-11-28 13:00:00,67.0,54.0,30.15,North,350,13.8,13.8,63,0.00,CLR,,0.00,WeatherDisplay:10.37,2014-11-28 18:00:00,
2014-11-28 13:05:00,67.2,54.2,30.15,NNE,14,8.0,14.0,63,0.00,CLR,,0.00,WeatherDisplay:10.37,2014-11-28 18:05:00,
2014-11-28 13:10:00,67.3,54.3,30.15,NNE,32,13.8,13.8,63,0.00,CLR,,0.00,WeatherDisplay:10.37,2014-11-28 18:10:00,
2014-11-28 13:15:00,67.2,54.2,30.15,NNE,23,16.1,16.1,63,0.00,CLR,,0.00,WeatherDisplay:10.37,2014-11-28 18:15:00,
2014-11-28 13:20:00,67.2,54.6,30.15,NNW,340,11.5,11.5,64,0.00,CLR,,0.00,WeatherDisplay:10.37,2014-11-28 18:20:00,
2014-11-28 13:25:00,67.3,54.7,30.15,North,350,9.0,16.0,64,0.00,CLR,,0.00,WeatherDisplay:10.37,2014-11-28 18:25:00,
2014-11-28 13:30:00,67.3,54.3,30.15,NNW,337,12.7,12.7,63,0.00,CLR,,0.00,WeatherDisplay:10.37,2014-11-28 18:30:00,
2014-11-28 13:35:00,67.1,54.5,30.14,North,358,9.0,18.0,64,0.00,CLR,,0.00,WeatherDisplay:10.37,2014-11-28 18:35:00,
2014-11-28 13:40:00,67.1,54.5,30.14,North,5,15.0,15.0,64,0.00,CLR,,0.00,WeatherDisplay:10.37,2014-11-28 18:40:00,
2014-11-28 13:45:00,67.1,54.5,30.14,NNW,335,15.0,15.0,64,0.00,CLR,,0.00,WeatherDisplay:10.37,2014-11-28 18:45:00,
2014-11-28 13:50:00,67.2,54.6,30.14,NW,321,15.0,15.0,64,0.00,CLR,,0.00,WeatherDisplay:10.37,2014-11-28 18:50:00,
2014-11-28 13:55:00,67.4,54.8,30.14,NNE,17,13.8,13.8,64,0.00,CLR,,0.00,WeatherDisplay:10.37,2014-11-28 18:55:00,
2014-11-28 14:00:00,67.2,54.6,30.14,North,355,19.6,19.6,64,0.00,CLR,,0.00,WeatherDisplay:10.37,2014-11-28 19:00:00,
2014-11-28 14:05:00,67.2,55.0,30.14,North,7,7.0,14.0,65,0.00,CLR,,0.00,WeatherDisplay:10.37,2014-11-28 19:05:00,
2014-11-28 14:10:00,67.3,54.7,30.14,NNW,331,11.5,11.5,64,0.00,CLR,,0.00,WeatherDisplay:10.37,2014-11-28 19:10:00,
2014-11-28 14:15:00,67.3,54.7,30.14,North,2,8.0,20.0,64,0.00,CLR,,0.00,WeatherDisplay:10.37,2014-11-28 19:15:00,
2014-11-28 14:20:00,67.2,55.0,30.13,NNE,33,9.2,9.2,65,0.00,CLR,,0.00,WeatherDisplay:10.37,2014-11-28 19:20:00,
2014-11-28 14:25:00,67.3,54.7,30.13,NNE,29,11.5,11.5,64,0.00,CLR,,0.00,WeatherDisplay:10.37,2014-11-28 19:25:00,